[[{"header":{"parameterUnit":"m.s-1","parameterCategory":2,"la1":30.2991,"la2":30.254,"lo1":-89.0895,"lo2":-89.0444,"dy":0.0017,"dx":0.0017,"nx":28,"ny":28,"refTime":"2024-05-27T03:00:00:Z","depth":"0","parameterNumber":2,"parameterNumberName":"U-component_of_CURRENTS"},"data":[0,0,0,0,0,0,0,0,0,0,0,0,0,0,0,0,0,0,0,0,0,0,0,0,0,0,0,0,0,0,0,0,0,0,0,0,0,0,0,0,0,0,0,0,0,0,0,0,0,0,0,0,0,0,0,0,0,0,0.383,0.3832,0,0.398,0.3982,0.3984,0.3958,0.3956,0.3953,0.3951,0.4058,0.4063,0.4068,0,0,0,0,0,0,0,0,0,0,0,0,0,0.3662,0.3664,0.383,0.3832,0.3834,0.398,0.3982,0.3984,0.3959,0.3956,0.3952,0.3949,0.4056,0.4062,0.4069,0,0,0,0,0,0,0,0,0,0,0,0,0,0.3765,0.3665,0.3829,0.3838,0.3841,0.3979,0.3982,0.3985,0.3959,0.3955,0.3952,0.3948,0.4054,0.4062,0.407,0.4197,0,0,0.4094,0.4097,0,0,0,0,0,0,0,0,0.3759,0.3772,0.3835,0.3838,0.3841,0.3946,0.3962,0.4054,0.396,0.3915,0.395,0.3946,0.402,0.403,0.4068,0.4202,0.4207,0.4095,0.4099,0.4103,0.4105,0,0,0,0,0,0,0,0.3752,0.3766,0.3889,0.3838,0.3841,0.3883,0.3892,0.398,0.3987,0.3918,0.3917,0.3935,0.402,0.406,0.407,0.4209,0.4094,0.4101,0.4106,0.4109,0.4489,0.4494,0,0,0,0,0,0,0.3731,0.3759,0.3885,0.3894,0.379,0.3889,0.3899,0.3917,0.3986,0.3994,0.3938,0.3933,0.4049,0.4061,0.4074,0.4244,0.4103,0.411,0.4115,0.4483,0.449,0.4495,0,0,0,0,0,0,0.3727,0.3741,0.3879,0.3829,0.3849,0.3895,0.3916,0.3922,0.3966,0.4002,0.4007,0.3975,0.4046,0.4062,0.4169,0.4246,0.4114,0.4121,0.4477,0.4485,0.4493,0.4575,0,0,0,0,0,0,0.3722,0.3739,0.3754,0.3828,0.3851,0.3994,0.392,0.3927,0.3983,0.3978,0.4037,0.4042,0.4044,0.4158,0.4177,0.4255,0.4127,0.447,0.4481,0.449,0.4565,0.4584,0.4601,0,0,0,0,0,0.3715,0.3769,0.3754,0.377,0.3867,0.3998,0.4017,0.4034,0.3988,0.405,0.4069,0.404,0.4234,0.4169,0.419,0.4272,0.4465,0.4478,0.4489,0.4557,0.4581,0.46,0,0,0,0,0,0,0.3705,0.3773,0.3758,0.3826,0.3912,0.3994,0.4056,0.4057,0.4125,0.4109,0.4111,0.4123,0.426,0.4268,0.4195,0.4417,0.4347,0.4364,0.4391,0.4414,0.4431,0.4448,0.4134,0,0,0,0,0,0.3709,0.3764,0.3838,0.3897,0.3944,0.4,0.4052,0.4068,0.4132,0.4156,0.4186,0.4237,0.4335,0.4366,0.4457,0.4571,0.4579,0.4643,0.466,0.4675,0.4709,0.48,0.4827,0.4535,0.4535,0.4534,0,0,0.3709,0.3766,0.3786,0.39,0.3963,0.4063,0.4024,0.4127,0.4199,0.4164,0.4268,0.4321,0.439,0.4522,0.4581,0.4524,0.4758,0.469,0.4701,0.4729,0.4815,0.4843,0.4867,0.4543,0.4541,0.454,0,0,0.3791,0.3807,0.3896,0.3977,0.409,0.413,0.4163,0.4255,0.4288,0.4406,0.4405,0.4499,0.4619,0.4683,0.4731,0.4913,0.4871,0.4937,0.5014,0.51,0.5124,0.5145,0.5149,0.517,0.4917,0.4917,0.4917,0,0.3787,0.3898,0.3948,0.407,0.4127,0.4161,0.4264,0.4338,0.4442,0.4486,0.4451,0.4661,0.4708,0.4875,0.4932,0.4954,0.4961,0.491,0.5118,0.514,0.516,0.516,0.5182,0.4922,0.4922,0.4921,0.4921,0,0.3949,0.4028,0.4103,0.4237,0.4314,0.442,0.4501,0.4576,0.4592,0.4646,0.481,0.4881,0.4986,0.5031,0.5037,0.5217,0.5161,0.5143,0.5045,0.5193,0.5184,0.5205,0.493,0.4928,0.4926,0.4925,0,0,0.3935,0.4163,0.418,0.4244,0.4397,0.4467,0.4604,0.4731,0.4797,0.4904,0.5006,0.5187,0.519,0.525,0.5272,0.5348,0.5479,0.5301,0.5303,0.5273,0.5614,0.5442,0.5447,0.5482,0.5488,0.5492,0.5534,0,0.4034,0.425,0.434,0.4492,0.4587,0.4652,0.4765,0.4873,0.4949,0.5059,0.5161,0.5284,0.5283,0.5322,0.5415,0.5488,0.5547,0.5466,0.5508,0.5509,0.5311,0.5472,0.5233,0.5241,0.5554,0.5557,0.556,0,0.4152,0.4266,0.4444,0.4584,0.4629,0.4719,0.4843,0.4951,0.5121,0.5186,0.5319,0.5383,0.5554,0.5505,0.5694,0.5635,0.5649,0.5676,0.5677,0.5512,0.5379,0.5159,0.5266,0.5173,0.5591,0.5589,0.5586,0,0.41,0.4319,0.4442,0.4501,0.4685,0.4751,0.4827,0.4983,0.5067,0.5259,0.5332,0.5524,0.5603,0.5712,0.5779,0.5745,0.594,0.5882,0.5735,0.5718,0.5525,0.5483,0.5524,0.6015,0.6015,0.6015,0.6014,0,0.4164,0.4246,0.4423,0.4486,0.4581,0.4712,0.4824,0.4933,0.5101,0.5204,0.5375,0.5482,0.5664,0.578,0.5829,0.585,0.5977,0.5793,0.5752,0.5541,0.5502,0.5417,0.5375,0.6016,0.6016,0.6015,0.6015,0,0.4111,0.4253,0.4364,0.4529,0.4572,0.4624,0.4783,0.4861,0.5038,0.5177,0.5242,0.5476,0.5631,0.5767,0.5927,0.5872,0.5764,0.5893,0.5593,0.5516,0.5233,0.5203,0.5018,0.4878,0.5727,0.5723,0.5721,0,0.4112,0.4181,0.4328,0.437,0.4448,0.4546,0.461,0.4797,0.4876,0.5154,0.5202,0.5421,0.5536,0.57,0.5688,0.5726,0.5638,0.5475,0.5384,0.5224,0.5165,0.4988,0.4873,0.5145,0.5138,0.5132,0.5127,0,0.4058,0.4114,0.4191,0.427,0.4339,0.4421,0.4526,0.4581,0.4798,0.4919,0.5094,0.5224,0.5383,0.5326,0.5362,0.5359,0.5205,0.5343,0.5299,0.4828,0.4525,0.4364,0.5065,0.5073,0.5078,0.5082,0.5085,0.5087,0.3955,0.398,0.4073,0.4128,0.4201,0.4259,0.4254,0.4381,0.4471,0.4577,0.4832,0.4894,0.4983,0.5003,0.4975,0.4773,0.4796,0.4628,0.4636,0.4496,0.4272,0.4812,0.4697,0.47,0.4703,0.4706,0.4708,0,0.3787,0.3854,0.3917,0.3964,0.3959,0.4074,0.4147,0.4107,0.4106,0.4269,0.4362,0.4411,0.4346,0.4416,0.4312,0.4132,0.3954,0.4033,0.3791,0.374,0.4338,0.4228,0.386,0.386,0.386,0.386,0.386,0.386,0.3701,0.371,0.3751,0.369,0.372,0.365,0.3646,0.3633,0.3691,0.3661,0.3658,0.3769,0.4013,0.4016,0.3862,0.3758,0.3527,0.3287,0.3354,0.3855,0.3913,0.3968,0.3859,0.3419,0.3419,0.2582,0.2576,0.2571]},{"header":{"parameterUnit":"m.s-1","parameterCategory":2,"la1":30.2991,"la2":30.254,"lo1":-89.0895,"lo2":-89.0444,"dy":0.0017,"dx":0.0017,"nx":28,"ny":28,"refTime":"2024-05-27T03:00:00:Z","depth":"0","parameterNumber":3,"parameterNumberName":"V-component_of_CURRENTS"},"data":[0,0,0,0,0,0,0,0,0,0,0,0,0,0,0,0,0,0,0,0,0,0,0,0,0,0,0,0,0,0,0,0,0,0,0,0,0,0,0,0,0,0,0,0,0,0,0,0,0,0,0,0,0,0,0,0,0,0,-0.0058,-0.0059,0,-0.0079,-0.0079,-0.0079,-0.0102,-0.0103,-0.0104,-0.0104,-0.0171,-0.0172,-0.0174,0,0,0,0,0,0,0,0,0,0,0,0,0,0.0003,0.0002,-0.0058,-0.0059,-0.0059,-0.0079,-0.0079,-0.0079,-0.0102,-0.0103,-0.0104,-0.0105,-0.0171,-0.0172,-0.0174,0,0,0,0,0,0,0,0,0,0,0,0,0,-0.0018,0.0002,-0.0058,-0.0076,-0.0078,-0.0079,-0.0079,-0.0079,-0.0102,-0.0103,-0.0104,-0.0105,-0.017,-0.0172,-0.0174,-0.0166,0,0,-0.0179,-0.018,0,0,0,0,0,0,0,0,-0.0017,-0.002,-0.0072,-0.0074,-0.0077,-0.0092,-0.0082,-0.0111,-0.0102,-0.009,-0.0104,-0.0105,-0.015,-0.0154,-0.015,-0.0169,-0.0172,-0.0179,-0.0181,-0.0181,-0.0182,0,0,0,0,0,0,0,-0.0015,-0.0019,-0.0063,-0.0073,-0.0076,-0.0068,-0.0072,-0.0087,-0.0113,-0.0091,-0.0093,-0.01,-0.0151,-0.0149,-0.0152,-0.0173,-0.0179,-0.0181,-0.0182,-0.0183,-0.0164,-0.0162,0,0,0,0,0,0,-0.002,-0.0018,-0.0063,-0.0064,-0.0052,-0.0069,-0.0073,-0.0083,-0.0112,-0.0117,-0.0099,-0.0101,-0.0145,-0.015,-0.0155,-0.0115,-0.0181,-0.0183,-0.0184,-0.0165,-0.0163,-0.0161,0,0,0,0,0,0,-0.0019,-0.0024,-0.0062,-0.0043,-0.0048,-0.007,-0.008,-0.0083,-0.0082,-0.0118,-0.0124,-0.0095,-0.0146,-0.0152,-0.0164,-0.012,-0.0184,-0.0185,-0.0167,-0.0165,-0.0162,-0.0057,0,0,0,0,0,0,-0.0017,-0.0024,-0.0024,-0.0044,-0.005,-0.0049,-0.008,-0.0083,-0.0086,-0.0089,-0.0117,-0.0124,-0.0147,-0.0161,-0.0165,-0.0123,-0.0187,-0.0169,-0.0166,-0.0163,-0.0063,-0.0052,-0.0042,0,0,0,0,0,-0.0015,-0.0011,-0.0024,-0.0029,-0.0053,-0.0048,-0.0048,-0.0065,-0.0085,-0.007,-0.0098,-0.0123,-0.0145,-0.0161,-0.0167,-0.0124,-0.017,-0.0167,-0.0163,-0.0067,-0.0054,-0.0042,0,0,0,0,0,0,0.0019,-0.0014,-0.0029,-0.0035,-0.0036,-0.0053,-0.0043,-0.0059,-0.0067,-0.0075,-0.0113,-0.0121,-0.0111,-0.0136,-0.0153,-0.011,-0.0157,-0.0155,-0.0082,-0.007,-0.006,-0.0026,-0.0188,0,0,0,0,0,0.0024,0.0018,-0.0006,-0.0005,-0.0007,-0.0024,-0.0024,-0.0035,-0.0051,-0.0055,-0.0079,-0.0097,-0.0098,-0.0101,-0.0113,-0.0095,-0.0124,-0.0069,-0.0058,-0.0049,-0.0025,-0.0032,-0.0019,-0.015,-0.015,-0.015,0,0,0.0036,0.002,0.0015,0.0003,-0.0002,0.0024,-0.0025,-0.0019,0.0008,-0.0062,-0.0039,-0.0068,-0.0088,-0.0064,-0.006,-0.008,-0.0032,-0.0045,-0.0037,-0.0017,-0.0027,-0.0014,-0.0003,-0.0147,-0.0148,-0.0148,0,0,0.0078,0.0045,0.0065,0.0067,0.0063,0.0058,0.0061,0.0046,0.0045,0.0054,0.0021,0.0019,0.0003,0.0012,0.0012,0.0072,0.0019,0.0065,0.0151,0.0144,0.0155,0.0164,0.0125,0.013,0.0076,0.0076,0.0076,0,0.01,0.0118,0.0076,0.0106,0.0124,0.0079,0.0126,0.0121,0.0106,0.012,0.0075,0.008,0.0051,0.0106,0.0126,0.01,0.0069,0.0105,0.0159,0.0167,0.0175,0.0132,0.0136,0.0082,0.0081,0.008,0.008,0,0.016,0.0183,0.0198,0.0222,0.0237,0.0265,0.0254,0.0265,0.0245,0.0239,0.0264,0.0221,0.0231,0.0223,0.0191,0.0248,0.0198,0.0167,0.0129,0.0195,0.0145,0.0147,0.0089,0.0087,0.0086,0.0084,0,0,0.0205,0.0236,0.0248,0.0292,0.0302,0.033,0.037,0.0408,0.0448,0.0413,0.047,0.0452,0.0414,0.0413,0.0372,0.0365,0.0376,0.0296,0.0293,0.026,0.0335,0.03,0.0298,0.0349,0.0351,0.0352,0.0271,0,0.0281,0.0366,0.036,0.0463,0.0512,0.0495,0.0546,0.0566,0.0561,0.0596,0.0555,0.0581,0.0492,0.05,0.048,0.0414,0.0391,0.0399,0.0274,0.0271,0.0235,0.0304,0.0314,0.0245,0.0273,0.0273,0.0273,0,0.0359,0.0409,0.0517,0.0601,0.0622,0.0674,0.0754,0.079,0.081,0.0804,0.0805,0.0757,0.0758,0.0661,0.0576,0.0582,0.0473,0.0399,0.0394,0.0334,0.0243,0.0187,0.0247,0.0057,0.0276,0.0276,0.0276,0,0.0439,0.0529,0.0627,0.0652,0.0727,0.0784,0.0826,0.0861,0.0914,0.0941,0.0976,0.0934,0.0931,0.0811,0.0651,0.0613,0.054,0.0464,0.0324,0.0317,0.0292,0.0282,0.0163,0.04,0.04,0.04,0.04,0,0.0534,0.0618,0.0674,0.0733,0.0861,0.0875,0.1,0.1026,0.108,0.1175,0.1093,0.1158,0.0968,0.0895,0.0719,0.0547,0.0588,0.0362,0.0314,0.0325,0.032,0.0123,0.0013,0.0397,0.0398,0.0398,0.0399,0,0.0627,0.0657,0.0777,0.0868,0.0907,0.1001,0.1114,0.1191,0.1225,0.1349,0.1369,0.1333,0.1245,0.1037,0.0847,0.0648,0.0366,0.0397,0.0408,0.0364,0.0037,-0.0068,-0.0243,-0.0324,0.0223,0.0222,0.0221,0,0.0689,0.0755,0.0877,0.095,0.1003,0.1125,0.1208,0.1267,0.1356,0.1477,0.1553,0.1505,0.1518,0.1212,0.0862,0.0549,0.0354,0.0316,0.025,0.0046,-0.0106,-0.0195,-0.0255,0.0237,0.0236,0.0235,0.0235,0,0.0809,0.084,0.093,0.107,0.1177,0.13,0.1426,0.1521,0.1614,0.1735,0.1884,0.1912,0.162,0.1323,0.0864,0.0635,0.0184,0.0292,0.0095,-0.0078,-0.0193,-0.0302,0.0229,0.023,0.0231,0.0231,0.0231,0.0231,0.0896,0.0966,0.1067,0.1205,0.1319,0.1469,0.1591,0.1735,0.1922,0.2116,0.2123,0.2204,0.1739,0.1133,0.0789,0.0143,0.0127,-0.0072,-0.0178,-0.0246,-0.0324,0.0186,0.0127,0.0127,0.0127,0.0127,0.0127,0,0.1003,0.1068,0.1193,0.1353,0.1483,0.1529,0.173,0.1865,0.2112,0.2285,0.2419,0.2256,0.1682,0.1087,0.021,-0.025,-0.0402,-0.0488,-0.0609,-0.0646,-0.0177,-0.0175,-0.0315,-0.0315,-0.0315,-0.0315,-0.0315,-0.0314,0.1061,0.1188,0.1237,0.1464,0.1573,0.1762,0.1883,0.2102,0.2267,0.2496,0.2558,0.2565,0.213,0.0585,-0.0458,-0.0692,-0.0968,-0.1052,-0.1194,-0.0883,-0.0852,-0.0823,-0.0846,-0.1126,-0.1127,-0.1602,-0.1607,-0.1611]}],[{"header":{"parameterUnit":"m.s-1","parameterCategory":2,"la1":30.2991,"la2":30.254,"lo1":-89.0895,"lo2":-89.0444,"dy":0.0017,"dx":0.0017,"nx":28,"ny":28,"refTime":"2024-05-27T03:00:00:Z","depth":"2","parameterNumber":2,"parameterNumberName":"U-component_of_CURRENTS"},"data":[0,0,0,0,0,0,0,0,0,0,0,0,0,0,0,0,0,0,0,0,0,0,0,0,0,0,0,0,0,0,0,0,0,0,0,0,0,0,0,0,0,0,0,0,0,0,0,0,0,0,0,0,0,0,0,0,0,0,0.3137,0.3138,0,0.3208,0.3209,0.3209,0.3179,0.3178,0.3176,0.3174,0.3257,0.3261,0.3265,0,0,0,0,0,0,0,0,0,0,0,0,0,0.3083,0.3084,0.3137,0.3138,0.3139,0.3208,0.3209,0.321,0.318,0.3177,0.3175,0.3173,0.3256,0.326,0.3265,0,0,0,0,0,0,0,0,0,0,0,0,0,0.3126,0.3084,0.3137,0.3131,0.3132,0.3207,0.3209,0.321,0.318,0.3177,0.3175,0.3172,0.3254,0.326,0.3266,0.3354,0,0,0.3283,0.3286,0,0,0,0,0,0,0,0,0.3123,0.3128,0.3131,0.3132,0.3132,0.3181,0.322,0.3259,0.3181,0.3162,0.3174,0.3171,0.3235,0.3242,0.3262,0.3358,0.3362,0.3284,0.3287,0.329,0.3291,0,0,0,0,0,0,0,0.312,0.3125,0.3166,0.3133,0.3133,0.3162,0.3164,0.3228,0.3213,0.3164,0.3162,0.3169,0.3234,0.3256,0.3263,0.3363,0.3284,0.3289,0.3292,0.3295,0.3557,0.356,0,0,0,0,0,0,0.3108,0.3122,0.3163,0.3168,0.312,0.3165,0.3167,0.3169,0.3212,0.3216,0.3172,0.3168,0.3248,0.3257,0.3266,0.3423,0.329,0.3295,0.3299,0.3553,0.3557,0.3561,0,0,0,0,0,0,0.3106,0.3111,0.316,0.3146,0.3154,0.3168,0.317,0.3172,0.3204,0.3218,0.3221,0.3203,0.3246,0.3258,0.3341,0.3424,0.3298,0.3303,0.3549,0.3555,0.3559,0.3706,0,0,0,0,0,0,0.3104,0.311,0.312,0.3145,0.3155,0.323,0.3173,0.3175,0.3212,0.3208,0.3247,0.325,0.3245,0.3333,0.3347,0.3429,0.3308,0.3545,0.3552,0.3558,0.3697,0.3715,0.3732,0,0,0,0,0,0.3102,0.3119,0.312,0.3125,0.3163,0.3233,0.3243,0.3243,0.3216,0.3257,0.3273,0.325,0.3383,0.3341,0.3357,0.3443,0.3542,0.355,0.3557,0.3689,0.3712,0.3731,0,0,0,0,0,0,0.31,0.3119,0.3119,0.314,0.3197,0.3228,0.3264,0.3266,0.3313,0.3311,0.3304,0.3312,0.3423,0.3412,0.3365,0.3535,0.3457,0.3468,0.3552,0.3574,0.3591,0.3612,0.3312,0,0,0,0,0,0.3107,0.3131,0.3163,0.3195,0.3219,0.325,0.328,0.3293,0.333,0.3346,0.337,0.3403,0.3471,0.35,0.3555,0.3653,0.3637,0.3714,0.3732,0.3747,0.3775,0.3842,0.3868,0.3587,0.3587,0.3587,0,0,0.3112,0.3135,0.3143,0.3199,0.3236,0.3299,0.3263,0.333,0.3391,0.3354,0.3445,0.3481,0.3514,0.3623,0.3669,0.362,0.381,0.3757,0.3769,0.379,0.3853,0.388,0.3905,0.3592,0.3591,0.3591,0,0,0.3148,0.3163,0.3195,0.3259,0.3332,0.3357,0.3382,0.3438,0.3471,0.3571,0.3564,0.365,0.3728,0.378,0.3811,0.3964,0.3912,0.3971,0.4073,0.4138,0.4162,0.4182,0.4155,0.4172,0.3967,0.3967,0.3968,0,0.3157,0.3205,0.3225,0.3298,0.3354,0.3385,0.3456,0.3513,0.3593,0.3639,0.3616,0.3765,0.3813,0.3939,0.4008,0.401,0.3996,0.3988,0.4161,0.4182,0.4201,0.4168,0.4185,0.3975,0.3974,0.3974,0.3973,0,0.324,0.3283,0.3324,0.3411,0.3475,0.356,0.3628,0.3696,0.3731,0.3784,0.3918,0.3975,0.4047,0.4097,0.4116,0.4278,0.4206,0.4185,0.4106,0.4238,0.4194,0.4209,0.3987,0.3984,0.3981,0.3979,0,0,0.322,0.335,0.3359,0.3413,0.355,0.3598,0.372,0.3831,0.3893,0.399,0.4081,0.4243,0.4252,0.4291,0.4312,0.4401,0.4541,0.4368,0.4368,0.4336,0.4621,0.4496,0.4498,0.4547,0.4552,0.4556,0.452,0,0.3279,0.3402,0.3461,0.3579,0.3645,0.3731,0.3836,0.3945,0.4023,0.4122,0.4214,0.4322,0.4325,0.4373,0.4466,0.4537,0.4596,0.4549,0.4503,0.4501,0.4372,0.452,0.4194,0.4131,0.4534,0.4536,0.4538,0,0.3337,0.3405,0.3528,0.365,0.3686,0.3773,0.3914,0.4013,0.4172,0.4241,0.4344,0.4394,0.4554,0.4531,0.4673,0.4636,0.4658,0.469,0.4688,0.454,0.4408,0.4074,0.4142,0.4563,0.4561,0.4559,0.4557,0,0.3304,0.3442,0.3532,0.3593,0.3743,0.3816,0.3903,0.4058,0.4144,0.4319,0.4387,0.4522,0.4599,0.4676,0.4756,0.4724,0.4885,0.4818,0.4699,0.4684,0.4385,0.4338,0.4926,0.4926,0.4926,0.4926,0.4926,0,0.3348,0.3398,0.3524,0.3579,0.3678,0.3802,0.3926,0.403,0.4193,0.4296,0.4434,0.4506,0.4659,0.4746,0.4786,0.4792,0.4887,0.4754,0.4705,0.442,0.4379,0.474,0.4719,0.4925,0.4925,0.4925,0.4925,0,0.3291,0.3387,0.3472,0.3621,0.3669,0.3739,0.3923,0.3996,0.4172,0.4301,0.4367,0.4536,0.4637,0.4734,0.4863,0.4807,0.4847,0.482,0.444,0.435,0.4568,0.4555,0.4642,0.4638,0.4635,0.4632,0.463,0,0.328,0.3326,0.3463,0.3501,0.3571,0.3696,0.3774,0.3969,0.4042,0.4287,0.4321,0.4492,0.4543,0.4651,0.4653,0.4652,0.4774,0.4318,0.4228,0.4615,0.4558,0.455,0.4542,0.385,0.3841,0.3834,0.3829,0,0.3219,0.327,0.3329,0.3416,0.3495,0.3582,0.3709,0.376,0.3975,0.4063,0.4165,0.424,0.4373,0.4235,0.4286,0.4242,0.4293,0.4172,0.4717,0.399,0.3871,0.3814,0.3831,0.3767,0.3773,0.3777,0.3781,0.3783,0.3147,0.3169,0.3242,0.3303,0.3378,0.3421,0.343,0.3544,0.3607,0.3688,0.3878,0.3874,0.3952,0.3836,0.3734,0.3673,0.3949,0.3764,0.3784,0.3812,0.3745,0.363,0.3461,0.3465,0.3469,0.3472,0.3475,0,0.3021,0.3064,0.3115,0.3165,0.3157,0.3271,0.3325,0.3271,0.3236,0.3382,0.3423,0.3192,0.3128,0.3219,0.304,0.3032,0.2994,0.2893,0.2822,0.2888,0.2946,0.2833,0.2308,0.2304,0.23,0.2296,0,0,0.2962,0.2942,0.2963,0.2902,0.2947,0.2878,0.2864,0.2804,0.2832,0.2754,0.275,0.2991,0.3138,0.2683,0.2629,0.2436,0.2632,0.2338,0.3287,0.3272,0.3323,0.3475,0.3381,0,0,0,0,0]},{"header":{"parameterUnit":"m.s-1","parameterCategory":2,"la1":30.2991,"la2":30.254,"lo1":-89.0895,"lo2":-89.0444,"dy":0.0017,"dx":0.0017,"nx":28,"ny":28,"refTime":"2024-05-27T03:00:00:Z","depth":"2","parameterNumber":3,"parameterNumberName":"V-component_of_CURRENTS"},"data":[0,0,0,0,0,0,0,0,0,0,0,0,0,0,0,0,0,0,0,0,0,0,0,0,0,0,0,0,0,0,0,0,0,0,0,0,0,0,0,0,0,0,0,0,0,0,0,0,0,0,0,0,0,0,0,0,0,0,-0.0102,-0.0103,0,-0.0113,-0.0113,-0.0113,-0.0138,-0.0139,-0.0139,-0.014,-0.0203,-0.0204,-0.0205,0,0,0,0,0,0,0,0,0,0,0,0,0,-0.006,-0.0061,-0.0102,-0.0103,-0.0103,-0.0113,-0.0113,-0.0113,-0.0138,-0.0139,-0.014,-0.014,-0.0203,-0.0204,-0.0206,0,0,0,0,0,0,0,0,0,0,0,0,0,-0.0073,-0.0061,-0.0102,-0.0118,-0.012,-0.0113,-0.0113,-0.0113,-0.0138,-0.0139,-0.014,-0.0141,-0.0203,-0.0204,-0.0206,-0.0192,0,0,-0.021,-0.0211,0,0,0,0,0,0,0,0,-0.0072,-0.0074,-0.0116,-0.0117,-0.0119,-0.0127,-0.0121,-0.0143,-0.0137,-0.0128,-0.014,-0.0141,-0.0184,-0.0187,-0.0182,-0.0195,-0.0198,-0.021,-0.0211,-0.0212,-0.0212,0,0,0,0,0,0,0,-0.0072,-0.0074,-0.0104,-0.0116,-0.0118,-0.0111,-0.0114,-0.0125,-0.0149,-0.0129,-0.0132,-0.0136,-0.0185,-0.018,-0.0184,-0.0199,-0.021,-0.0212,-0.0212,-0.0213,-0.0207,-0.0206,0,0,0,0,0,0,-0.0076,-0.0073,-0.0104,-0.0104,-0.0101,-0.0111,-0.0114,-0.0122,-0.0147,-0.0153,-0.0135,-0.0138,-0.0177,-0.0182,-0.0186,-0.0158,-0.0212,-0.0213,-0.0214,-0.0208,-0.0207,-0.0206,0,0,0,0,0,0,-0.0075,-0.0079,-0.0103,-0.0091,-0.0094,-0.0111,-0.0119,-0.0121,-0.0119,-0.0152,-0.0158,-0.0131,-0.0178,-0.0184,-0.0193,-0.0162,-0.0214,-0.0215,-0.0209,-0.0208,-0.0206,-0.0111,0,0,0,0,0,0,-0.0074,-0.0079,-0.0078,-0.0091,-0.0095,-0.0086,-0.0118,-0.0121,-0.0121,-0.0124,-0.015,-0.0157,-0.018,-0.0191,-0.0195,-0.0165,-0.0216,-0.0211,-0.0209,-0.0207,-0.0115,-0.0106,-0.0098,0,0,0,0,0,-0.0073,-0.0063,-0.0078,-0.0081,-0.0096,-0.0085,-0.0085,-0.0099,-0.012,-0.0104,-0.0131,-0.0156,-0.0181,-0.0191,-0.0196,-0.0165,-0.0212,-0.0209,-0.0207,-0.0119,-0.0108,-0.0099,0,0,0,0,0,0,-0.004,-0.0066,-0.0082,-0.0081,-0.0079,-0.009,-0.0077,-0.0094,-0.01,-0.011,-0.0145,-0.0152,-0.0149,-0.0172,-0.0182,-0.0159,-0.0199,-0.0198,-0.0131,-0.0121,-0.0113,-0.0083,-0.0218,0,0,0,0,0,-0.0035,-0.0038,-0.0055,-0.0051,-0.0049,-0.0063,-0.0061,-0.0073,-0.0086,-0.0089,-0.0112,-0.0134,-0.014,-0.0144,-0.0159,-0.0144,-0.0176,-0.0129,-0.012,-0.0113,-0.0093,-0.0117,-0.0108,-0.0198,-0.0198,-0.0198,0,0,-0.0024,-0.0036,-0.0039,-0.0044,-0.0045,-0.0018,-0.0063,-0.0055,-0.0035,-0.0096,-0.0078,-0.0108,-0.0132,-0.0117,-0.0116,-0.0133,-0.0106,-0.011,-0.0103,-0.0087,-0.0113,-0.0104,-0.0097,-0.0197,-0.0197,-0.0197,0,0,0.0019,-0.0009,0.0014,0.002,0.0018,0.0012,0.0016,0.0006,0.0,0.0007,-0.0029,-0.0037,-0.0054,-0.0054,-0.0059,-0.0012,-0.0065,-0.0023,0.0051,0.0028,0.0035,0.0041,0.0003,0.0005,-0.0013,-0.0013,-0.0013,0,0.0039,0.0061,0.0027,0.006,0.0077,0.0032,0.0078,0.007,0.0056,0.0064,0.0022,0.0012,-0.0016,0.002,0.0035,0.0011,-0.0023,0.0016,0.004,0.0045,0.005,0.0009,0.001,-0.0008,-0.0008,-0.0009,-0.0009,0,0.0103,0.0127,0.0146,0.017,0.0185,0.0212,0.0198,0.0204,0.0178,0.0168,0.0176,0.0132,0.0132,0.0119,0.0092,0.0124,0.008,0.0048,0.0017,0.0065,0.0018,0.0018,-0.0001,-0.0003,-0.0004,-0.0005,0,0,0.0145,0.0183,0.0195,0.0236,0.0244,0.0272,0.03,0.0328,0.0358,0.0315,0.0356,0.0328,0.0288,0.0281,0.0239,0.0219,0.0213,0.0155,0.0152,0.0123,0.0146,0.011,0.0104,0.0178,0.0179,0.018,0.0097,0,0.0217,0.0307,0.0302,0.0397,0.0448,0.0424,0.0464,0.0473,0.0459,0.0479,0.0423,0.0436,0.0354,0.0357,0.0323,0.0244,0.0217,0.0238,0.01,0.0096,0.0062,0.0106,0.013,0.0058,0.0095,0.0095,0.0095,0,0.0296,0.0347,0.0449,0.0526,0.0547,0.0587,0.0648,0.0679,0.0679,0.0665,0.065,0.0594,0.057,0.0484,0.0371,0.0383,0.0282,0.0205,0.0199,0.0137,0.006,0.0017,0.0055,0.0093,0.0093,0.0093,0.0094,0,0.037,0.0459,0.0546,0.057,0.0638,0.0681,0.0719,0.074,0.0787,0.079,0.0814,0.0744,0.0727,0.0592,0.0422,0.0397,0.0281,0.0224,0.0094,0.0089,0.0071,0.0064,0.0151,0.0151,0.0151,0.0151,0.0151,0,0.046,0.0535,0.0587,0.0641,0.0754,0.0766,0.0876,0.0895,0.0935,0.1015,0.092,0.0955,0.0752,0.0652,0.0475,0.0287,0.0317,0.0123,0.0076,0.0103,0.01,0.01,0.0095,0.0148,0.0149,0.0149,0.015,0,0.054,0.057,0.0681,0.0762,0.0797,0.0881,0.099,0.106,0.1081,0.1182,0.1193,0.112,0.0988,0.0768,0.0553,0.0374,0.0188,0.0113,0.015,0.011,-0.0008,-0.0007,-0.0041,-0.0043,-0.0045,-0.0046,-0.0047,0,0.0597,0.0656,0.0772,0.0841,0.0884,0.0998,0.1077,0.1134,0.1214,0.1293,0.135,0.1258,0.1209,0.0864,0.0542,0.0227,0.0186,0.0035,-0.0003,0.002,-0.0023,-0.0019,-0.0016,-0.0001,-0.0001,-0.0002,-0.0002,0,0.07,0.0726,0.0808,0.0947,0.1046,0.1167,0.1284,0.1373,0.1453,0.1527,0.1601,0.157,0.1257,0.0941,0.0507,0.0293,0.0081,0.0014,0.0047,0.0047,0.0052,0.0012,0.0015,-0.0006,-0.0006,-0.0005,-0.0005,-0.0005,0.0773,0.0837,0.093,0.1062,0.1177,0.1318,0.143,0.1548,0.1692,0.1806,0.1772,0.1727,0.1377,0.0821,0.0441,0.0045,0.0067,-0.0085,-0.0081,-0.0077,-0.0054,-0.0051,-0.0126,-0.0126,-0.0127,-0.0127,-0.0127,0,0.0861,0.092,0.1039,0.1192,0.1316,0.1369,0.1551,0.1646,0.1818,0.1911,0.1951,0.1621,0.127,0.0866,0.028,-0.0073,-0.0095,-0.0192,-0.014,-0.0133,-0.0128,-0.0106,-0.0193,-0.0195,-0.0196,-0.0197,0,0,0.091,0.102,0.1065,0.1274,0.1383,0.1553,0.1661,0.1799,0.1896,0.197,0.1953,0.188,0.1404,0.0963,0.0484,0.0144,0.0085,0.0074,0.0167,0.0292,0.0301,-0.0025,0.002,0,0,0,0,0]}],[{"header":{"parameterUnit":"m.s-1","parameterCategory":2,"la1":30.2991,"la2":30.254,"lo1":-89.0895,"lo2":-89.0444,"dy":0.0017,"dx":0.0017,"nx":28,"ny":28,"refTime":"2024-05-27T03:00:00:Z","depth":"4","parameterNumber":2,"parameterNumberName":"U-component_of_CURRENTS"},"data":[0,0,0,0,0,0,0,0,0,0,0,0,0,0,0,0,0,0,0,0,0,0,0,0,0,0,0,0,0,0,0,0,0,0,0,0,0,0,0,0,0,0,0,0,0,0,0,0,0,0,0,0,0,0,0,0,0,0,0.1922,0.1922,0,0.1939,0.194,0.194,0.2003,0.2004,0.2005,0.2006,0.2075,0.2076,0.2076,0,0,0,0,0,0,0,0,0,0,0,0,0,0.1939,0.1939,0.1922,0.1922,0.1921,0.1939,0.194,0.194,0.2003,0.2004,0.2005,0.2007,0.2074,0.2075,0.2076,0,0,0,0,0,0,0,0,0,0,0,0,0,0.1946,0.1939,0.1922,0.1952,0.1954,0.1939,0.194,0.1941,0.2003,0.2004,0.2006,0.2007,0.2074,0.2075,0.2077,0.2054,0,0,0.2081,0.2081,0,0,0,0,0,0,0,0,0.1945,0.1946,0.1947,0.1949,0.1952,0.1967,0.1971,0.198,0.2002,0.1989,0.2006,0.2008,0.2039,0.2044,0.2049,0.2057,0.206,0.2081,0.2082,0.2082,0.2082,0,0,0,0,0,0,0,0.1945,0.1945,0.1933,0.1947,0.195,0.1962,0.1966,0.1973,0.201,0.199,0.1994,0.1988,0.2042,0.2047,0.2051,0.2061,0.2081,0.2082,0.2083,0.2083,0.2169,0.217,0,0,0,0,0,0,0.1932,0.1945,0.1933,0.1933,0.1948,0.1961,0.1964,0.1964,0.2008,0.2015,0.1987,0.1991,0.2044,0.2049,0.2054,0.2152,0.2082,0.2083,0.2084,0.2168,0.2169,0.2171,0,0,0,0,0,0,0.1933,0.1931,0.1932,0.1936,0.1936,0.1958,0.1958,0.1963,0.2011,0.2005,0.2014,0.2032,0.2046,0.2052,0.2089,0.215,0.2084,0.2085,0.2166,0.2168,0.217,0.2269,0,0,0,0,0,0,0.1933,0.1931,0.1951,0.1935,0.1935,0.1942,0.1956,0.1963,0.2,0.2007,0.2045,0.2051,0.2048,0.2087,0.209,0.2151,0.2086,0.2164,0.2167,0.2169,0.2264,0.2274,0.2283,0,0,0,0,0,0.1934,0.1929,0.1952,0.1952,0.1954,0.1942,0.1945,0.1968,0.2001,0.2019,0.2048,0.2052,0.2108,0.2088,0.2092,0.2155,0.2163,0.2166,0.2169,0.2259,0.2272,0.2283,0,0,0,0,0,0,0.1949,0.1934,0.1959,0.1954,0.1964,0.1952,0.1967,0.1991,0.2028,0.2052,0.2061,0.2067,0.2119,0.2117,0.2095,0.2186,0.214,0.2144,0.2207,0.2219,0.2229,0.2245,0.2087,0,0,0,0,0,0.196,0.1958,0.1953,0.1959,0.1964,0.1982,0.1992,0.201,0.2025,0.2047,0.208,0.2111,0.2127,0.2158,0.2163,0.2214,0.2224,0.2258,0.2268,0.2277,0.2291,0.2341,0.2357,0.2182,0.2182,0.2182,0,0,0.1975,0.1961,0.1969,0.1964,0.1978,0.199,0.1994,0.2014,0.2051,0.2045,0.2126,0.2138,0.2141,0.2193,0.222,0.2211,0.2335,0.2281,0.2288,0.2298,0.2346,0.2364,0.2379,0.2184,0.2184,0.2184,0,0,0.1967,0.1989,0.1982,0.199,0.2003,0.2016,0.2033,0.2057,0.2101,0.2154,0.2165,0.2219,0.2254,0.2281,0.2292,0.2359,0.2368,0.2369,0.2457,0.2505,0.2521,0.2534,0.2586,0.2603,0.2395,0.2395,0.2395,0,0.1996,0.1981,0.1983,0.1976,0.1998,0.2035,0.2054,0.2091,0.2137,0.2186,0.2194,0.2285,0.2297,0.2366,0.2397,0.2386,0.2412,0.2414,0.252,0.2534,0.2546,0.2595,0.2613,0.24,0.2399,0.2399,0.2398,0,0.1967,0.1985,0.1981,0.1999,0.2025,0.2044,0.2089,0.2156,0.2224,0.2264,0.2362,0.2386,0.2457,0.2467,0.2457,0.2559,0.2549,0.2512,0.2494,0.257,0.2616,0.2633,0.2407,0.2405,0.2404,0.2403,0,0,0.196,0.1966,0.197,0.2,0.2046,0.2062,0.2146,0.2225,0.2298,0.2379,0.248,0.2536,0.2589,0.2604,0.2619,0.2667,0.2783,0.2646,0.2646,0.2705,0.2907,0.2724,0.2724,0.277,0.2773,0.2775,0.2912,0,0.1955,0.1945,0.1962,0.2015,0.2031,0.2113,0.2183,0.227,0.2356,0.2466,0.2543,0.2629,0.2629,0.2689,0.2746,0.2763,0.283,0.275,0.2818,0.2821,0.2654,0.2737,0.2785,0.2924,0.2928,0.2931,0.2933,0,0.1913,0.1923,0.1954,0.2036,0.2056,0.2115,0.226,0.233,0.2478,0.2544,0.267,0.2733,0.2865,0.2829,0.2956,0.2911,0.2937,0.2935,0.294,0.2744,0.2667,0.2828,0.2963,0.296,0.2958,0.2956,0.2954,0,0.1876,0.1921,0.1956,0.198,0.2075,0.2153,0.2238,0.2373,0.2457,0.2626,0.2708,0.2849,0.295,0.3008,0.3067,0.3031,0.3165,0.3109,0.297,0.2959,0.3041,0.3024,0.3195,0.3194,0.3194,0.3194,0.3193,0,0.1829,0.1867,0.1955,0.1977,0.2071,0.2153,0.2282,0.2377,0.253,0.2619,0.2773,0.2863,0.3,0.3101,0.312,0.3109,0.3231,0.3004,0.2983,0.3079,0.3066,0.3054,0.3035,0.3199,0.3198,0.3197,0.3196,0,0.1762,0.1808,0.1872,0.1997,0.2051,0.213,0.231,0.2377,0.2537,0.2668,0.274,0.2928,0.3048,0.3152,0.3245,0.3162,0.3166,0.313,0.3262,0.3243,0.2919,0.2904,0.2989,0.2984,0.2979,0.2976,0.2973,0,0.1707,0.1732,0.1883,0.1931,0.2,0.2131,0.2202,0.237,0.2435,0.2674,0.2712,0.2919,0.3021,0.303,0.3132,0.3173,0.3124,0.3109,0.2978,0.2928,0.29,0.2893,0.2884,0.2965,0.2964,0.2963,0.2962,0,0.1634,0.1715,0.1771,0.1872,0.196,0.2036,0.216,0.2199,0.2376,0.255,0.2635,0.2719,0.2844,0.2923,0.2981,0.2993,0.3101,0.306,0.3068,0.2946,0.2899,0.2875,0.2872,0.2946,0.2948,0.295,0.2951,0,0.1603,0.1621,0.1711,0.1784,0.1876,0.1893,0.1987,0.2061,0.2158,0.2403,0.2433,0.2636,0.2816,0.2833,0.2885,0.2889,0.2833,0.2711,0.2736,0.2754,0.2609,0.2512,0.244,0,0,0,0,0,0.1562,0.1543,0.1604,0.1655,0.1734,0.1786,0.1916,0.2004,0.2185,0.2181,0.23,0.2406,0.2499,0.2615,0.2573,0.2776,0.2838,0.2712,0.2708,0.286,0.2878,0.2725,0,0,0,0,0,0,0.1524,0.1557,0.1555,0.152,0.153,0.1588,0.1662,0.1789,0.1806,0.2014,0.2091,0.2248,0.239,0.2502,0.2524,0.2555,0.2498,0.2844,0.2837,0.2849,0.2866,0.288,0.273,0,0,0,0,0]},{"header":{"parameterUnit":"m.s-1","parameterCategory":2,"la1":30.2991,"la2":30.254,"lo1":-89.0895,"lo2":-89.0444,"dy":0.0017,"dx":0.0017,"nx":28,"ny":28,"refTime":"2024-05-27T03:00:00:Z","depth":"4","parameterNumber":3,"parameterNumberName":"V-component_of_CURRENTS"},"data":[0,0,0,0,0,0,0,0,0,0,0,0,0,0,0,0,0,0,0,0,0,0,0,0,0,0,0,0,0,0,0,0,0,0,0,0,0,0,0,0,0,0,0,0,0,0,0,0,0,0,0,0,0,0,0,0,0,0,-0.0019,-0.0019,0,-0.0003,-0.0003,-0.0003,-0.0028,-0.0029,-0.003,-0.0031,-0.0058,-0.0058,-0.0057,0,0,0,0,0,0,0,0,0,0,0,0,0,-0.0017,-0.0017,-0.0019,-0.0019,-0.0019,-0.0003,-0.0003,-0.0003,-0.0028,-0.0029,-0.003,-0.0032,-0.0058,-0.0058,-0.0057,0,0,0,0,0,0,0,0,0,0,0,0,0,-0.0009,-0.0017,-0.0019,-0.0031,-0.0032,-0.0003,-0.0003,-0.0002,-0.0028,-0.0029,-0.0031,-0.0032,-0.0058,-0.0058,-0.0057,-0.0023,0,0,-0.0056,-0.0056,0,0,0,0,0,0,0,0,-0.001,-0.0009,-0.0029,-0.003,-0.0032,-0.0021,-0.0012,-0.0012,-0.0027,-0.0027,-0.0031,-0.0033,-0.0049,-0.005,-0.004,-0.0025,-0.0026,-0.0056,-0.0056,-0.0056,-0.0055,0,0,0,0,0,0,0,-0.001,-0.001,-0.0011,-0.0029,-0.0031,-0.0019,-0.002,-0.0011,-0.0029,-0.0027,-0.003,-0.003,-0.005,-0.004,-0.0041,-0.0026,-0.0056,-0.0056,-0.0055,-0.0055,-0.0024,-0.0023,0,0,0,0,0,0,-0.0017,-0.001,-0.0012,-0.0011,-0.0026,-0.0018,-0.0019,-0.0021,-0.0028,-0.0031,-0.0029,-0.0032,-0.004,-0.0041,-0.0042,-0.0023,-0.0056,-0.0055,-0.0055,-0.0025,-0.0024,-0.0023,0,0,0,0,0,0,-0.0017,-0.0017,-0.0012,-0.0012,-0.0011,-0.0017,-0.0019,-0.002,-0.0014,-0.003,-0.0033,-0.0023,-0.0042,-0.0043,-0.0033,-0.0023,-0.0055,-0.0055,-0.0025,-0.0024,-0.0024,0.0029,0,0,0,0,0,0,-0.0017,-0.0017,-0.0015,-0.0012,-0.0011,0.0016,-0.0018,-0.0019,-0.0013,-0.0017,-0.0025,-0.0029,-0.0043,-0.0033,-0.0033,-0.0023,-0.0054,-0.0026,-0.0025,-0.0024,0.0027,0.0032,0.0036,0,0,0,0,0,-0.0017,-0.0002,-0.0015,-0.0015,-0.0009,0.0017,0.002,0.0011,-0.0011,0.0007,-0.0008,-0.0029,-0.0027,-0.0032,-0.0031,-0.0022,-0.0027,-0.0025,-0.0024,0.0025,0.0031,0.0036,0,0,0,0,0,0,0.0004,-0.0003,-0.0017,-0.0006,0.0006,0.0012,0.0028,0.0017,0.0022,0.0013,-0.0011,-0.0014,-0.0006,-0.0017,-0.0022,-0.0011,-0.0034,-0.0033,0.0002,0.0008,0.0013,0.0021,-0.0054,0,0,0,0,0,0.0008,0.0013,0.0013,0.0024,0.0032,0.0029,0.0038,0.0032,0.0033,0.0033,0.0021,0.0007,0.0004,0.0003,-0.0,0.0018,-0.0011,0.002,0.0024,0.0029,0.0035,-0.0002,-0.0,-0.0019,-0.0019,-0.0019,0,0,0.0016,0.0015,0.0016,0.0029,0.0036,0.0063,0.0032,0.0052,0.0065,0.0031,0.0043,0.0027,0.0012,0.0024,0.0026,0.0015,0.0019,0.003,0.0034,0.0039,-0.0001,0.0001,0.0003,-0.0018,-0.0018,-0.0018,0,0,0.0055,0.0039,0.0065,0.0079,0.0093,0.0092,0.0097,0.0103,0.0096,0.0112,0.008,0.0071,0.0074,0.0061,0.0055,0.0086,0.0045,0.0081,0.0115,0.0079,0.008,0.0081,0.0049,0.0046,0.0084,0.0084,0.0084,0,0.0067,0.0093,0.008,0.0115,0.0129,0.0106,0.0144,0.0141,0.0144,0.0143,0.012,0.0107,0.009,0.0098,0.0104,0.0097,0.007,0.0096,0.0085,0.0085,0.0084,0.0051,0.0048,0.0087,0.0087,0.0086,0.0086,0,0.0129,0.015,0.0171,0.0197,0.0213,0.0243,0.0235,0.024,0.0219,0.0208,0.0204,0.0177,0.0169,0.0156,0.0142,0.0136,0.0115,0.0093,0.007,0.0089,0.0054,0.0049,0.0091,0.009,0.0089,0.0088,0,0,0.0158,0.0204,0.0212,0.0241,0.0257,0.0282,0.0296,0.031,0.032,0.0294,0.0306,0.0277,0.0249,0.024,0.021,0.0175,0.0146,0.0139,0.0135,0.0108,0.0067,0.0051,0.0044,0.0119,0.0119,0.0118,0.0043,0,0.0213,0.0289,0.0294,0.0363,0.04,0.0385,0.0405,0.0405,0.0388,0.0392,0.0339,0.0341,0.0285,0.0285,0.024,0.0172,0.0136,0.0169,0.0052,0.0049,0.0033,0.0039,0.0117,0.0039,0.0038,0.0037,0.0037,0,0.0276,0.0316,0.0392,0.0445,0.0461,0.0495,0.0519,0.0537,0.0521,0.0506,0.048,0.0438,0.0393,0.0342,0.0222,0.0244,0.0166,0.0101,0.0096,0.0061,0.0025,0.0015,0.0028,0.0028,0.0029,0.003,0.003,0,0.0312,0.0388,0.0448,0.0468,0.0518,0.0549,0.0575,0.0574,0.0601,0.0585,0.0596,0.0518,0.0498,0.0378,0.0237,0.0232,0.0095,0.0071,-0.0018,-0.002,-0.0008,-0.0008,-0.0011,-0.0011,-0.0011,-0.0011,-0.0011,0,0.0369,0.0422,0.0475,0.0513,0.0592,0.0604,0.0677,0.0684,0.0702,0.0741,0.0667,0.067,0.0505,0.0405,0.0265,0.0107,0.0113,-0.001,-0.004,0.0017,0.002,-0.0012,-0.0011,-0.0014,-0.0013,-0.0012,-0.0012,0,0.0406,0.0439,0.052,0.0587,0.0618,0.0676,0.0767,0.0809,0.0814,0.0865,0.0867,0.0787,0.0656,0.0476,0.0283,0.0158,-0.0002,-0.0058,0.0022,-0.0004,-0.0099,-0.0094,-0.0158,-0.0159,-0.016,-0.0161,-0.0162,0,0.0437,0.0479,0.0579,0.0635,0.0676,0.0764,0.0824,0.0866,0.0911,0.0933,0.0957,0.086,0.078,0.0503,0.0301,0.0029,-0.0014,-0.0102,-0.0108,-0.009,-0.0114,-0.0107,-0.0102,-0.0163,-0.0164,-0.0164,-0.0164,0,0.0486,0.0518,0.058,0.0694,0.0779,0.0872,0.096,0.1007,0.1047,0.1056,0.1034,0.0896,0.0751,0.0518,0.0304,0.0107,-0.0053,-0.0113,-0.0113,-0.0119,-0.0097,-0.0118,-0.0111,-0.0168,-0.0167,-0.0167,-0.0167,0,0.0523,0.0567,0.0646,0.0748,0.0852,0.0943,0.0996,0.105,0.1097,0.1109,0.11,0.0942,0.0849,0.056,0.0362,0.0163,0.0111,0.0033,0.0025,0.0026,0.0091,0.0146,0.0129,0,0,0,0,0,0.0556,0.0599,0.0692,0.08,0.0901,0.0962,0.1064,0.1101,0.1145,0.1139,0.1122,0.0985,0.0708,0.0593,0.0394,0.0328,0.0063,0.0085,-0.0033,-0.0186,-0.0182,-0.0141,0,0,0,0,0,0,0.0575,0.0653,0.0688,0.0817,0.0893,0.1006,0.1074,0.1108,0.1104,0.1118,0.098,0.0915,0.0649,0.0819,0.0383,0.0325,0.0217,-0.0041,-0.0046,-0.0189,-0.0185,-0.0182,-0.0138,0,0,0,0,0]}]]